User: anonymous   Login
Location: Seasalter
(51.3333°N, 1.0167°E)
Time: 01:46:58
(UTC+00:00)
Language:

Cosmos 1271 Rocket - Orbit

View from above orbital plane
View from above orbital plane
View from above satellite
View from above satellite

Ground track
Ground track

The orbit data is extracted from the following two-line orbital elements,

1 12465U 81046B   24062.57066998  .00006372  00000-0  26706-3 0  9993
2 12465  81.2368  81.4153 0029236  35.5288 324.7883 15.22958669325551
Epoch (UTC): 02 March 2024 13:41:45
Eccentricity: 0.0029236
inclination: 81.2368°
perigee height: 477 km
apogee height: 517 km
right ascension of ascending node: 81.4153°
argument of perigee: 35.5288°
revolutions per day: 15.22958669
mean anomaly at epoch: 324.7883°
orbit number at epoch: 32555

The dashed part of the orbit path shows where the satellite is in the earth's shadow,  

DLR